Location: Wien
(48.2082°N, 16.3738°E)
Time: 13:15:02
(UTC+01:00)

Vanguard 1 - Visible Passes

Search period start: 22 February 2024 00:00
Search period end: 03 March 2024 00:00
Orbit: 653 x 3826 km, 34.3° (Epoch: 21 February)

Date Brightness Start Highest point End Pass type
(mag) Time Alt. Az. Time Alt. Az. Time Alt. Az.
22 Feb 13.4 02:46:59 22° S 02:46:59 22° S 02:52:20 10° SSE visible
22 Feb 12.9 19:31:09 10° SSW 19:44:47 39° SSE 19:52:23 31° ESE visible
22 Feb 12.8 21:50:18 10° WSW 22:05:02 52° SSW 22:05:02 52° SSW visible
23 Feb 13.6 00:12:39 10° W 00:53:56 - SE 00:17:42 22° WSW visible
23 Feb 13.5 03:06:38 18° S 03:06:38 18° S 03:11:03 10° S visible
23 Feb 13.2 17:35:44 10° SSE 17:44:21 19° SE 17:55:45 10° E visible
23 Feb 12.8 19:50:41 10° SW 20:04:47 43° SSE 20:11:39 36° ESE visible
23 Feb 12.8 22:10:30 10° WSW 22:24:18 50° SSW 22:24:18 50° SSW visible
24 Feb 13.8 00:33:17 10° W 01:13:36 - SE 00:36:57 18° W visible
24 Feb 13.6 03:26:18 15° SSW 03:26:18 15° SSW 03:29:10 10° S visible
24 Feb 13.0 17:53:57 10° S 18:03:49 25° SE 18:17:45 10° E visible
24 Feb 12.7 20:10:25 10° SW 20:24:53 47° SSE 20:30:51 40° SE visible
24 Feb 12.9 22:30:47 10° WSW 22:43:30 47° SW 22:43:30 47° SW visible
25 Feb 13.9 00:54:02 10° W 01:33:15 - SSE 00:56:09 14° W visible
25 Feb 13.7 03:45:57 10° SSW 03:45:57 10° SSW 03:46:16 10° SSW visible
25 Feb 12.9 18:12:47 10° SSW 18:23:25 30° SE 18:37:21 13° E visible
25 Feb 12.7 20:30:19 10° SW 20:45:07 50° SSE 20:50:00 45° SE visible
25 Feb 13.0 22:51:09 10° W 23:02:39 42° SW 23:02:39 42° SW visible
26 Feb 14.0 01:14:57 10° W 01:52:54 - SSE 01:15:18 11° W visible
26 Feb 12.8 18:31:59 10° SSW 18:43:10 35° SE 18:56:27 17° E visible
26 Feb 12.6 20:50:20 10° WSW 21:05:27 52° S 21:09:06 49° SSE visible
26 Feb 13.2 23:11:35 10° W 23:21:45 37° WSW 23:21:45 37° WSW visible
27 Feb14.002:12:32SSE02:12:32SSE01:34:23Wvisible
27 Feb 12.7 18:51:28 10° SW 19:03:04 40° SSE 19:15:31 21° ESE visible
27 Feb 12.6 21:10:28 10° WSW 21:25:50 53° S 21:28:10 51° SSE visible
27 Feb 13.3 23:32:07 10° W 23:40:48 32° WSW 23:40:48 32° WSW visible
28 Feb14.102:32:08S02:32:08S01:53:27Wvisible
28 Feb 12.6 19:11:10 10° SW 19:23:06 44° SSE 19:34:33 25° ESE visible
28 Feb 12.7 21:30:40 10° WSW 21:46:15 52° S 21:47:11 52° S visible
28 Feb 13.4 23:52:47 10° W 23:59:50 26° WSW 23:59:50 26° WSW visible
29 Feb 12.5 19:31:01 10° SW 19:43:15 47° SSE 19:53:34 29° ESE visible
29 Feb 12.7 21:50:57 10° WSW 22:06:12 50° SSW 22:06:12 50° SSW visible
01 Mar 13.6 00:13:37 10° W 00:18:50 21° WSW 00:18:50 21° WSW visible
01 Mar 12.5 19:50:59 10° WSW 20:03:30 49° S 20:12:33 33° ESE visible
01 Mar 12.8 22:11:19 10° W 22:25:11 46° SSW 22:25:11 46° SSW visible
02 Mar 13.8 00:34:44 10° W 00:37:50 16° W 00:37:50 16° W visible
02 Mar 12.5 17:52:46 10° SSW 18:02:05 36° SSE 18:17:23 10° E visible
02 Mar 12.5 20:11:04 10° WSW 20:23:48 50° S 20:31:32 37° SE visible
02 Mar 13.0 22:31:47 10° W 22:44:10 41° SW 22:44:10 41° SW visible
